Weather Roundup
Issued by NWS Chicago, IL

Home | Current Version | Previous Version | Text Only | Print | Product List | Glossary Off
Versions: 1 2 3 4 5 6 7 8 9 10 11 12 13 14 15 16 17 18 19 20 21 22 23 24 25 26 27 28 29 30 31 32 33 34 35 36 37 38 39 40 41 42 43 44 45 46 47 48 49 50

403
NZUS59 KLOT 211208
HRRLOT

CHICAGO AREA WEATHER ROUNDUP
NATIONAL WEATHER SERVICE CHICAGO/ROMEOVILLE IL
600 AM CST TUE FEB 21 2017

NOTE: "FAIR" INDICATES FEW OR NO CLOUDS BELOW 12,000 FEET WITH NO
SIGNIFICANT WEATHER AND/OR OBSTRUCTIONS TO VISIBILITY.

* THESE STATIONS ARE NOT UNDER NWS QUALITY CONTROL. THEY ALSO MAY NOT
  REPORT WEATHER SUCH AS PRECIPITATION OR FOG.

ILZ005-006-012>014-019>023-211300-
NORTHEAST ILLINOIS

CITY           SKY/WX    TMP DP  RH WIND       PRES   REMARKS
OHARE          LGT RAIN  55  52  89 W5        29.90S
6HR MIN TEMP:  54; 6HR MAX TEMP:  62; 6HR PCP:  0.03;

MIDWAY         LGT RAIN  55  51  86 S7        29.90F
6HR MIN TEMP:  54; 6HR MAX TEMP:  60; 6HR PCP:  0.08;

AURORA         LGT RAIN  52  51  97 W3        29.92R FOG
6HR MIN TEMP:  52; 6HR MAX TEMP:  57; 6HR PCP:  0.05;

LANSING*       LGT RAIN  52  51  97 S8        29.93S
JOLIET*        LGT RAIN  55  55  99 CALM      29.91S
WAUKEGAN       CLOUDY    52  51  97 SW6       29.88R FOG
6HR MIN TEMP:  52; 6HR MAX TEMP:  59; 6HR PCP:  0.03;

DUPAGE AIRPORT LGT RAIN  53  51  93 SW5       29.91R FOG
6HR MIN TEMP:  52; 6HR MAX TEMP:  57; 6HR PCP:  0.03;

WHEELING       LGT RAIN  54  51  90 S6        29.91R
6HR MIN TEMP:  53; 6HR MAX TEMP:  60; 6HR PCP:  0.02;

KANKAKEE*      RAIN      53  50  91 CALM      29.95F
MORRIS*        LGT RAIN  53  51  95 CALM      29.91R
LEWIS AIRPORT* RAIN      52  52 100 S7        29.91S
NORTHERLY ISL    N/A     54  50  86 S6          N/A
$$

WIZ051-052-058>065-066-070>072-211300-
SOUTHEAST WISCONSIN

CITY           SKY/WX    TMP DP  RH WIND       PRES   REMARKS
MILWAUKEE      CLOUDY    55  52  89 W9        29.88S
6HR MIN TEMP:  54; 6HR MAX TEMP:  58; 6HR PCP:  0.07;

KENOSHA*       CLOUDY    54  51  90 SW10      29.88S FOG
RACINE*        CLOUDY    54  51  90 W5        29.89S
WAUKESHA       CLOUDY    54  54 100 W13       29.88S
WEST BEND      CLOUDY    54  52  94 W9        29.86R
$$

INZ001>003-010>013-019-020-211300-
NORTHWEST INDIANA

CITY           SKY/WX    TMP DP  RH WIND       PRES   REMARKS
GARY*          LGT RAIN  55  48  76 S6        29.93F
MICHIGAN CITY* NOT AVBL
RENSSELAER*    NOT AVBL
VALPARAISO     LGT RAIN  54  48  80 S6        29.96R
$$

LMZ740>746-211300-
SOUTHERN LAKE MICHIGAN

STATION/POSITION TIME  SKY/WX   TEMP WIND        PRES    VSBY
                                AIR  DIR/SP/G
                 (UTC)          (F)  (DEG/KT/KT) (MB)    (MI)
HARRISON CRIB    1140            54  180/ 16/ 16   N/A
BURNHAM HARBOR   1200            54  210/  5/ 11   N/A
CALUMET HARBOR   1142            54  170/  4/  7 1012.4F
BURNS HARBOR     1140            55  190/  9/ 11 1013.9F
MICHIGAN CITY    1140            57  160/  8/  9   N/A
$$

ABBREVIATIONS USED IN REMARKS
   TC - TEMPERATURE IN CELSIUS
  WCI - WIND CHILL INDEX
   HX - HEAT INDEX
  VSB - VISIBILITY
$$




USA.gov is the U.S. government's official web portal to all federal, state and local government web resources and services.